Time,TemperatureF,DewpointF,PressureIn,WindDirection,WindDirectionDegrees,WindSpeedMPH,WindSpeedGustMPH,Humidity,HourlyPrecipIn,Conditions,Clouds,dailyrainin,SoftwareType,DateUTC
2013-01-16 00:00:00,30.2,19.9,30.21,NW,311,0.0,0.0,65,0.00,,CLR,0.00,VWS V13.01,2013-01-16 05:00:00,
2013-01-16 00:01:00,30.2,19.9,30.21,NW,311,0.0,0.0,65,0.00,,CLR,0.00,VWS V13.01,2013-01-16 05:01:00,
2013-01-16 00:02:00,30.2,19.9,30.21,NW,311,0.0,0.0,65,0.00,,CLR,0.00,VWS V13.01,2013-01-16 05:02:00,
2013-01-16 00:07:00,30.2,19.9,30.21,NW,311,0.0,0.0,65,0.00,,CLR,0.00,VWS V13.01,2013-01-16 05:07:00,
2013-01-16 00:12:00,30.2,19.9,30.21,NW,311,0.0,0.0,65,0.00,,CLR,0.00,VWS V13.01,2013-01-16 05:12:00,
2013-01-16 00:17:00,30.2,19.9,30.21,NW,311,0.0,0.0,65,0.00,,CLR,0.00,VWS V13.01,2013-01-16 05:17:00,
2013-01-16 00:23:00,30.3,20.0,30.21,NW,311,0.0,0.0,65,0.00,,CLR,0.00,VWS V13.01,2013-01-16 05:23:00,
2013-01-16 00:28:00,30.4,19.7,30.21,NW,311,0.0,0.0,64,0.00,,CLR,0.00,VWS V13.01,2013-01-16 05:28:00,
2013-01-16 00:33:00,30.5,19.8,30.21,NW,311,0.0,0.0,64,0.00,,CLR,0.00,VWS V13.01,2013-01-16 05:33:00,
2013-01-16 00:38:00,30.5,19.8,30.21,NW,311,0.0,0.0,64,0.00,,CLR,0.00,VWS V13.01,2013-01-16 05:38:00,
2013-01-16 00:43:00,30.6,19.9,30.21,NW,311,0.0,0.0,64,0.00,,CLR,0.00,VWS V13.01,2013-01-16 05:43:00,
2013-01-16 00:48:00,30.6,19.9,30.21,NW,311,0.0,0.0,64,0.00,,BKN090,0.00,VWS V13.01,2013-01-16 05:48:00,
2013-01-16 00:53:00,30.7,19.6,30.21,NW,311,0.0,0.0,63,0.00,,BKN090,0.00,VWS V13.01,2013-01-16 05:53:00,
2013-01-16 00:58:00,30.7,19.6,30.22,NW,311,0.0,0.0,63,0.00,,BKN090,0.00,VWS V13.01,2013-01-16 05:58:00,
2013-01-16 01:03:00,30.8,20.1,30.22,NW,311,0.0,0.0,64,0.00,,BKN090,0.00,VWS V13.01,2013-01-16 06:03:00,
2013-01-16 01:08:00,30.8,20.1,30.21,NW,311,0.0,0.0,64,0.00,,BKN090,0.00,VWS V13.01,2013-01-16 06:08:00,
2013-01-16 01:13:00,30.8,19.7,30.21,NW,311,0.0,0.0,63,0.00,,BKN090,0.00,VWS V13.01,2013-01-16 06:13:00,
2013-01-16 01:18:00,30.8,19.7,30.21,NW,311,0.0,0.0,63,0.00,,BKN090,0.00,VWS V13.01,2013-01-16 06:18:00,
2013-01-16 01:23:00,30.9,20.2,30.20,NW,311,0.0,0.0,64,0.00,,BKN090,0.00,VWS V13.01,2013-01-16 06:23:00,
2013-01-16 01:29:00,30.9,20.2,30.21,NW,311,0.0,0.0,64,0.00,,BKN090,0.00,VWS V13.01,2013-01-16 06:29:00,
2013-01-16 01:34:00,30.9,20.2,30.21,NW,311,0.0,0.0,64,0.00,,BKN090,0.00,VWS V13.01,2013-01-16 06:34:00,
2013-01-16 01:39:00,31.0,20.3,30.20,NW,311,0.0,0.0,64,0.00,,BKN090,0.00,VWS V13.01,2013-01-16 06:39:00,
2013-01-16 01:44:00,31.0,19.9,30.20,NW,311,0.0,0.0,63,0.00,,BKN090,0.00,VWS V13.01,2013-01-16 06:44:00,
2013-01-16 01:49:00,31.0,19.9,30.20,NW,311,0.0,0.0,63,0.00,,OVC085,0.00,VWS V13.01,2013-01-16 06:49:00,
2013-01-16 01:54:00,31.0,20.3,30.20,NW,311,0.0,0.0,64,0.00,,OVC085,0.00,VWS V13.01,2013-01-16 06:54:00,
2013-01-16 01:59:00,31.0,20.3,30.20,NW,311,0.0,0.0,64,0.00,,OVC085,0.00,VWS V13.01,2013-01-16 06:59:00,
2013-01-16 02:04:00,31.0,20.6,30.20,NW,311,0.0,0.0,65,0.00,,OVC085,0.00,VWS V13.01,2013-01-16 07:04:00,
2013-01-16 02:09:00,31.1,20.7,30.20,NW,311,0.0,0.0,65,0.00,,OVC085,0.00,VWS V13.01,2013-01-16 07:09:00,
2013-01-16 02:14:00,31.2,21.2,30.20,NW,311,0.0,0.0,66,0.00,,OVC085,0.00,VWS V13.01,2013-01-16 07:14:00,
2013-01-16 02:19:00,31.2,21.2,30.20,NW,311,0.0,0.0,66,0.00,,OVC085,0.00,VWS V13.01,2013-01-16 07:19:00,
2013-01-16 02:24:00,31.3,21.6,30.19,NW,311,0.0,0.0,67,0.00,,OVC085,0.00,VWS V13.01,2013-01-16 07:24:00,
2013-01-16 02:29:00,31.4,21.7,30.19,NW,311,0.0,0.0,67,0.00,,OVC085,0.00,VWS V13.01,2013-01-16 07:29:00,
2013-01-16 02:35:00,31.4,21.7,30.19,NW,311,0.0,0.0,67,0.00,,OVC085,0.00,VWS V13.01,2013-01-16 07:35:00,
2013-01-16 02:40:00,31.4,21.7,30.19,NW,311,0.0,0.0,67,0.00,,OVC085,0.00,VWS V13.01,2013-01-16 07:40:00,
2013-01-16 02:45:00,31.4,22.1,30.20,NW,311,0.0,0.0,68,0.00,,OVC095,0.00,VWS V13.01,2013-01-16 07:45:00,
2013-01-16 02:50:00,31.4,22.1,30.19,NW,311,0.0,0.0,68,0.00,,OVC095,0.00,VWS V13.01,2013-01-16 07:50:00,
2013-01-16 02:55:00,31.5,22.2,30.19,NW,311,0.0,0.0,68,0.00,,OVC095,0.00,VWS V13.01,2013-01-16 07:55:00,
2013-01-16 03:00:00,31.5,22.2,30.20,NW,311,0.0,0.0,68,0.00,,OVC095,0.00,VWS V13.01,2013-01-16 08:00:00,
2013-01-16 03:05:00,31.5,22.2,30.20,NW,311,0.0,0.0,68,0.00,,OVC095,0.00,VWS V13.01,2013-01-16 08:05:00,
2013-01-16 03:10:00,31.5,22.2,30.19,NW,311,0.0,0.0,68,0.00,,OVC095,0.00,VWS V13.01,2013-01-16 08:10:00,
2013-01-16 03:15:00,31.6,22.3,30.18,NW,311,0.0,0.0,68,0.00,,OVC095,0.00,VWS V13.01,2013-01-16 08:15:00,
2013-01-16 03:20:00,31.6,22.3,30.18,NW,311,0.0,0.0,68,0.00,,OVC095,0.00,VWS V13.01,2013-01-16 08:20:00,
2013-01-16 03:25:00,31.6,22.3,30.18,NW,311,0.0,0.0,68,0.00,,OVC095,0.00,VWS V13.01,2013-01-16 08:25:00,
2013-01-16 03:30:00,31.6,22.6,30.17,NW,311,0.0,0.0,69,0.00,,OVC095,0.00,VWS V13.01,2013-01-16 08:30:00,
2013-01-16 03:35:00,31.6,22.6,30.16,NW,311,0.0,0.0,69,0.00,,OVC095,0.00,VWS V13.01,2013-01-16 08:35:00,
2013-01-16 03:41:00,31.5,22.5,30.16,NW,311,0.0,0.0,69,0.00,,OVC095,0.00,VWS V13.01,2013-01-16 08:41:00,
2013-01-16 03:46:00,31.5,22.5,30.16,NW,311,0.0,0.0,69,0.00,,OVC080,0.00,VWS V13.01,2013-01-16 08:46:00,
2013-01-16 03:51:00,31.5,22.5,30.14,NW,311,0.0,0.0,69,0.00,,OVC080,0.00,VWS V13.01,2013-01-16 08:51:00,
2013-01-16 03:56:00,31.5,22.5,30.14,NW,311,0.0,0.0,69,0.00,,OVC080,0.00,VWS V13.01,2013-01-16 08:56:00,
2013-01-16 04:01:00,31.5,22.5,30.14,NW,311,0.0,0.0,69,0.00,,OVC080,0.00,VWS V13.01,2013-01-16 09:01:00,
2013-01-16 04:06:00,31.5,22.5,30.14,NW,311,0.0,0.0,69,0.00,,OVC080,0.00,VWS V13.01,2013-01-16 09:06:00,
2013-01-16 04:11:00,31.5,22.5,30.14,NW,311,0.0,1.0,69,0.00,,OVC080,0.00,VWS V13.01,2013-01-16 09:11:00,
2013-01-16 04:16:00,31.5,22.9,30.14,NW,311,0.0,1.0,70,0.00,,OVC080,0.00,VWS V13.01,2013-01-16 09:16:00,
2013-01-16 04:21:00,31.5,22.9,30.14,NW,311,0.0,1.0,70,0.00,,OVC080,0.00,VWS V13.01,2013-01-16 09:21:00,
2013-01-16 04:26:00,31.5,22.9,30.13,NW,311,0.0,1.0,70,0.00,,OVC080,0.00,VWS V13.01,2013-01-16 09:26:00,
2013-01-16 04:31:00,31.5,22.9,30.14,NW,311,0.0,1.0,70,0.00,,OVC080,0.00,VWS V13.01,2013-01-16 09:31:00,
2013-01-16 04:36:00,31.6,22.6,30.14,NW,311,0.0,0.0,69,0.00,,OVC080,0.00,VWS V13.01,2013-01-16 09:36:00,
2013-01-16 04:41:00,31.6,22.6,30.14,NW,311,0.0,1.0,69,0.00,,OVC080,0.00,VWS V13.01,2013-01-16 09:41:00,
2013-01-16 04:46:00,31.6,22.6,30.13,NW,311,0.0,1.0,69,0.00,,OVC046,0.00,VWS V13.01,2013-01-16 09:46:00,
2013-01-16 04:51:00,31.4,22.1,30.13,NW,311,0.0,1.0,68,0.00,,OVC046,0.00,VWS V13.01,2013-01-16 09:51:00,
2013-01-16 04:56:00,31.2,21.9,30.13,NW,311,0.0,1.0,68,0.00,,OVC046,0.00,VWS V13.01,2013-01-16 09:56:00,
2013-01-16 05:01:00,31.0,21.3,30.12,NW,311,0.0,0.0,67,0.00,,,0.00,VWS V13.01,2013-01-16 10:01:00,
2013-01-16 05:06:00,30.7,20.7,30.13,NW,311,0.0,0.0,66,0.00,,,0.00,VWS V13.01,2013-01-16 10:06:00,
2013-01-16 05:12:00,30.5,20.1,30.12,NW,311,0.0,0.0,65,0.00,,,0.00,VWS V13.01,2013-01-16 10:12:00,
2013-01-16 05:17:00,30.3,19.6,30.12,NW,311,0.0,0.0,64,0.00,,,0.00,VWS V13.01,2013-01-16 10:17:00,
2013-01-16 05:22:00,30.2,19.5,30.12,NW,311,0.0,0.0,64,0.00,,,0.00,VWS V13.01,2013-01-16 10:22:00,
2013-01-16 05:27:00,30.0,19.0,30.12,NW,311,0.0,0.0,63,0.00,,,0.00,VWS V13.01,2013-01-16 10:27:00,
2013-01-16 05:32:00,29.9,18.5,30.12,NW,311,0.0,0.0,62,0.00,,,0.00,VWS V13.01,2013-01-16 10:32:00,
2013-01-16 05:37:00,29.8,18.0,30.12,NW,311,0.0,0.0,61,0.00,,,0.00,VWS V13.01,2013-01-16 10:37:00,
2013-01-16 05:42:00,29.7,17.5,30.12,NW,311,0.0,0.0,60,0.00,,,0.00,VWS V13.01,2013-01-16 10:42:00,
2013-01-16 05:47:00,29.7,17.5,30.12,NW,311,0.0,0.0,60,0.00,,,0.00,VWS V13.01,2013-01-16 10:47:00,
2013-01-16 05:52:00,29.6,17.0,30.11,NW,311,0.0,0.0,59,0.00,,,0.00,VWS V13.01,2013-01-16 10:52:00,
2013-01-16 05:57:00,29.6,16.6,30.11,NW,311,0.0,0.0,58,0.00,,,0.00,VWS V13.01,2013-01-16 10:57:00,
2013-01-16 06:02:00,29.6,16.6,30.11,NW,311,0.0,0.0,58,0.00,,,0.00,VWS V13.01,2013-01-16 11:02:00,
2013-01-16 06:07:00,29.5,16.2,30.11,NW,311,0.0,0.0,57,0.00,,,0.00,VWS V13.01,2013-01-16 11:07:00,
2013-01-16 06:12:00,29.5,15.8,30.11,NW,311,0.0,0.0,56,0.00,,,0.00,VWS V13.01,2013-01-16 11:12:00,
2013-01-16 06:17:00,29.5,15.8,30.10,NW,311,0.0,0.0,56,0.00,,,0.00,VWS V13.01,2013-01-16 11:17:00,
2013-01-16 06:22:00,29.4,15.2,30.10,NW,311,0.0,0.0,55,0.00,,,0.00,VWS V13.01,2013-01-16 11:22:00,
2013-01-16 06:27:00,29.3,15.1,30.09,NW,311,0.0,0.0,55,0.00,,,0.00,VWS V13.01,2013-01-16 11:27:00,
2013-01-16 06:32:00,29.3,15.1,30.10,NW,311,0.0,0.0,55,0.00,,,0.00,VWS V13.01,2013-01-16 11:32:00,
2013-01-16 06:37:00,29.3,14.7,30.10,NW,311,0.0,0.0,54,0.00,,,0.00,VWS V13.01,2013-01-16 11:37:00,
2013-01-16 06:42:00,29.3,14.7,30.10,NW,311,0.0,0.0,54,0.00,,,0.00,VWS V13.01,2013-01-16 11:42:00,
2013-01-16 06:47:00,29.3,14.3,30.10,NW,311,0.0,0.0,53,0.00,,,0.00,VWS V13.01,2013-01-16 11:47:00,
2013-01-16 06:52:00,29.2,14.2,30.09,NW,311,0.0,0.0,53,0.00,,,0.00,VWS V13.01,2013-01-16 11:52:00,
2013-01-16 06:58:00,29.2,14.2,30.09,NW,311,0.0,0.0,53,0.00,,,0.00,VWS V13.01,2013-01-16 11:58:00,
2013-01-16 07:03:00,29.2,14.2,30.10,NW,311,0.0,0.0,53,0.00,,,0.00,VWS V13.01,2013-01-16 12:03:00,
2013-01-16 07:08:00,29.2,13.8,30.10,NW,311,0.0,0.0,52,0.00,,,0.00,VWS V13.01,2013-01-16 12:08:00,
2013-01-16 07:13:00,29.1,13.7,30.10,NW,311,0.0,0.0,52,0.00,,,0.00,VWS V13.01,2013-01-16 12:13:00,
2013-01-16 07:18:00,29.1,13.7,30.10,NW,311,0.0,0.0,52,0.00,,,0.00,VWS V13.01,2013-01-16 12:18:00,
2013-01-16 07:23:00,29.0,13.6,30.09,NW,311,0.0,0.0,52,0.00,,,0.00,VWS V13.01,2013-01-16 12:23:00,
2013-01-16 07:28:00,29.0,13.6,30.08,NW,311,0.0,0.0,52,0.00,,,0.00,VWS V13.01,2013-01-16 12:28:00,
2013-01-16 07:33:00,29.0,13.1,30.09,NW,311,0.0,0.0,51,0.00,,,0.00,VWS V13.01,2013-01-16 12:33:00,
2013-01-16 07:38:00,29.0,13.1,30.08,NW,311,0.0,0.0,51,0.00,,,0.00,VWS V13.01,2013-01-16 12:38:00,
2013-01-16 07:43:00,28.9,13.1,30.08,NW,311,0.0,0.0,51,0.00,,,0.00,VWS V13.01,2013-01-16 12:43:00,
2013-01-16 07:48:00,28.9,13.1,30.07,NW,311,0.0,0.0,51,0.00,,,0.00,VWS V13.01,2013-01-16 12:48:00,
2013-01-16 07:53:00,28.9,13.1,30.07,NW,311,0.0,0.0,51,0.00,,,0.00,VWS V13.01,2013-01-16 12:53:00,
2013-01-16 07:58:00,28.9,13.1,30.07,NW,311,0.0,0.0,51,0.00,,,0.00,VWS V13.01,2013-01-16 12:58:00,
2013-01-16 08:03:00,28.9,13.1,30.07,NW,311,0.0,0.0,51,0.00,,,0.00,VWS V13.01,2013-01-16 13:03:00,
2013-01-16 08:08:00,28.9,13.1,30.07,NW,311,0.0,0.0,51,0.00,,,0.00,VWS V13.01,2013-01-16 13:08:00,
2013-01-16 08:13:00,28.9,12.6,30.06,NW,311,0.0,0.0,50,0.00,,,0.00,VWS V13.01,2013-01-16 13:13:00,
2013-01-16 08:18:00,29.0,12.7,30.06,NW,311,0.0,0.0,50,0.00,,,0.00,VWS V13.01,2013-01-16 13:18:00,
2013-01-16 08:23:00,29.0,12.7,30.06,NW,311,0.0,0.0,50,0.00,,,0.00,VWS V13.01,2013-01-16 13:23:00,
2013-01-16 08:28:00,29.0,12.7,30.06,NW,311,0.0,0.0,50,0.00,,,0.00,VWS V13.01,2013-01-16 13:28:00,
2013-01-16 08:33:00,29.1,12.8,30.06,NW,311,0.0,0.0,50,0.00,,,0.00,VWS V13.01,2013-01-16 13:33:00,
2013-01-16 08:38:00,29.1,12.8,30.06,NW,311,0.0,0.0,50,0.00,,,0.00,VWS V13.01,2013-01-16 13:38:00,
2013-01-16 08:43:00,29.1,12.8,30.07,NW,311,0.0,0.0,50,0.00,,,0.00,VWS V13.01,2013-01-16 13:43:00,
2013-01-16 08:48:00,29.1,12.8,30.06,NW,311,0.0,0.0,50,0.00,,,0.00,VWS V13.01,2013-01-16 13:48:00,
2013-01-16 08:53:00,29.2,12.9,30.07,NW,311,0.0,0.0,50,0.00,,,0.00,VWS V13.01,2013-01-16 13:53:00,
2013-01-16 08:58:00,29.2,12.9,30.06,NW,311,0.0,0.0,50,0.00,,,0.00,VWS V13.01,2013-01-16 13:58:00,
2013-01-16 09:03:00,29.2,12.9,30.06,NW,311,0.0,0.0,50,0.00,,,0.00,VWS V13.01,2013-01-16 14:03:00,
2013-01-16 09:08:00,29.3,13.0,30.05,NW,311,0.0,0.0,50,0.00,,,0.00,VWS V13.01,2013-01-16 14:08:00,
2013-01-16 09:13:00,29.3,13.0,30.04,NW,311,0.0,0.0,50,0.00,,,0.00,VWS V13.01,2013-01-16 14:13:00,
2013-01-16 09:18:00,29.3,13.0,30.04,NW,311,0.0,0.0,50,0.00,,,0.00,VWS V13.01,2013-01-16 14:18:00,
2013-01-16 09:23:00,29.4,12.6,30.03,NW,311,0.0,0.0,49,0.00,,,0.00,VWS V13.01,2013-01-16 14:23:00,
2013-01-16 09:29:00,29.4,12.6,30.03,NW,311,0.0,0.0,49,0.00,,,0.00,VWS V13.01,2013-01-16 14:29:00,
2013-01-16 09:34:00,29.5,12.7,30.02,NW,311,0.0,0.0,49,0.00,,,0.00,VWS V13.01,2013-01-16 14:34:00,
2013-01-16 09:39:00,29.6,12.8,30.01,NW,311,0.0,0.0,49,0.00,,,0.00,VWS V13.01,2013-01-16 14:39:00,
2013-01-16 09:44:00,29.7,12.9,30.01,NW,311,0.0,0.0,49,0.00,,,0.00,VWS V13.01,2013-01-16 14:44:00,
2013-01-16 09:49:00,29.8,13.0,30.00,NW,311,0.0,0.0,49,0.00,,,0.00,VWS V13.01,2013-01-16 14:49:00,
2013-01-16 09:54:00,29.9,13.1,29.99,NW,311,0.0,0.0,49,0.00,,,0.00,VWS V13.01,2013-01-16 14:54:00,
2013-01-16 09:59:00,30.1,13.3,29.99,NW,311,0.0,0.0,49,0.00,,,0.00,VWS V13.01,2013-01-16 14:59:00,
2013-01-16 10:04:00,30.3,13.4,29.98,NW,311,0.0,0.0,49,0.00,,,0.00,VWS V13.01,2013-01-16 15:04:00,
2013-01-16 10:09:00,30.5,13.6,29.98,NW,311,0.0,0.0,49,0.00,,,0.00,VWS V13.01,2013-01-16 15:09:00,
2013-01-16 10:14:00,30.5,13.6,29.98,NW,311,0.0,0.0,49,0.00,,,0.00,VWS V13.01,2013-01-16 15:14:00,
2013-01-16 10:19:00,30.6,13.3,29.97,NW,311,0.0,0.0,48,0.00,,,0.00,VWS V13.01,2013-01-16 15:19:00,
2013-01-16 10:24:00,30.6,13.3,29.96,NW,311,0.0,0.0,48,0.00,,,0.00,VWS V13.01,2013-01-16 15:24:00,
2013-01-16 10:29:00,30.8,13.4,29.96,NW,311,0.0,0.0,48,0.00,,,0.00,VWS V13.01,2013-01-16 15:29:00,
2013-01-16 10:34:00,30.8,13.4,29.95,NW,311,0.0,0.0,48,0.00,,,0.00,VWS V13.01,2013-01-16 15:34:00,
2013-01-16 10:39:00,31.0,13.6,29.95,NW,311,0.0,0.0,48,0.00,,,0.00,VWS V13.01,2013-01-16 15:39:00,
2013-01-16 10:44:00,31.1,13.7,29.96,NW,311,0.0,0.0,48,0.00,,,0.00,VWS V13.01,2013-01-16 15:44:00,
2013-01-16 10:49:00,31.2,13.8,29.97,NW,311,0.0,0.0,48,0.00,,,0.00,VWS V13.01,2013-01-16 15:49:00,
2013-01-16 10:54:00,31.2,13.8,29.97,North,360,0.0,0.0,48,0.00,,,0.00,VWS V13.01,2013-01-16 15:54:00,
2013-01-16 10:59:00,31.2,13.8,29.96,NNW,336,0.0,0.0,48,0.00,,,0.00,VWS V13.01,2013-01-16 15:59:00,
2013-01-16 11:04:00,31.3,13.9,29.95,NNW,336,0.0,0.0,48,0.00,,,0.00,VWS V13.01,2013-01-16 16:04:00,
2013-01-16 11:09:00,31.2,13.8,29.95,NNW,337,0.0,0.0,48,0.00,,,0.00,VWS V13.01,2013-01-16 16:09:00,
2013-01-16 11:14:00,31.2,13.8,29.94,NNW,342,0.0,0.0,48,0.00,,,0.00,VWS V13.01,2013-01-16 16:14:00,
2013-01-16 11:19:00,31.2,13.8,29.93,North,9,0.0,0.0,48,0.00,,,0.00,VWS V13.01,2013-01-16 16:19:00,
2013-01-16 11:24:00,31.2,13.8,29.94,NNE,14,0.0,0.0,48,0.00,,,0.00,VWS V13.01,2013-01-16 16:24:00,
2013-01-16 11:30:00,31.3,13.9,29.93,NNE,14,0.0,0.0,48,0.00,,,0.00,VWS V13.01,2013-01-16 16:30:00,
2013-01-16 11:35:00,31.3,13.9,29.93,North,5,0.0,0.0,48,0.00,,,0.00,VWS V13.01,2013-01-16 16:35:00,
2013-01-16 11:40:00,31.4,14.0,29.92,North,5,0.0,0.0,48,0.00,,,0.00,VWS V13.01,2013-01-16 16:40:00,
2013-01-16 11:45:00,31.4,14.0,29.92,North,5,0.0,0.0,48,0.00,,,0.00,VWS V13.01,2013-01-16 16:45:00,
2013-01-16 11:50:00,31.3,13.9,29.92,North,5,0.0,0.0,48,0.00,,,0.00,VWS V13.01,2013-01-16 16:50:00,
2013-01-16 11:55:00,31.4,14.0,29.91,North,5,0.0,0.0,48,0.00,,,0.00,VWS V13.01,2013-01-16 16:55:00,
2013-01-16 12:00:00,31.5,14.1,29.91,NW,312,0.0,0.0,48,0.00,,,0.00,VWS V13.01,2013-01-16 17:00:00,
2013-01-16 12:05:00,31.6,14.2,29.91,NW,312,0.0,0.0,48,0.00,,,0.00,VWS V13.01,2013-01-16 17:05:00,
2013-01-16 12:10:00,31.6,14.2,29.92,NW,312,0.0,0.0,48,0.00,,,0.00,VWS V13.01,2013-01-16 17:10:00,
2013-01-16 12:15:00,31.6,14.2,29.92,NNW,334,0.0,0.0,48,0.00,,,0.00,VWS V13.01,2013-01-16 17:15:00,
2013-01-16 12:20:00,31.6,14.2,29.91,NNW,341,0.0,0.0,48,0.00,,,0.00,VWS V13.01,2013-01-16 17:20:00,
2013-01-16 12:25:00,31.6,14.2,29.91,NNW,341,0.0,0.0,48,0.00,,,0.00,VWS V13.01,2013-01-16 17:25:00,
2013-01-16 12:30:00,31.6,14.2,29.90,NNW,341,0.0,0.0,48,0.00,,,0.00,VWS V13.01,2013-01-16 17:30:00,
2013-01-16 12:35:00,31.6,14.2,29.89,NNW,341,0.0,0.0,48,0.00,,,0.00,VWS V13.01,2013-01-16 17:35:00,
2013-01-16 12:40:00,31.7,14.3,29.88,NNW,341,0.0,0.0,48,0.00,,,0.00,VWS V13.01,2013-01-16 17:40:00,
2013-01-16 12:45:00,31.7,14.3,29.88,NNW,341,0.0,0.0,48,0.00,,,0.00,VWS V13.01,2013-01-16 17:45:00,
2013-01-16 12:50:00,31.8,14.4,29.89,NNW,341,0.0,0.0,48,0.00,,,0.00,VWS V13.01,2013-01-16 17:50:00,
2013-01-16 12:55:00,31.8,14.4,29.89,NNW,341,0.0,0.0,48,0.00,,,0.00,VWS V13.01,2013-01-16 17:55:00,
2013-01-16 13:00:00,31.9,14.4,29.89,NNW,341,0.0,0.0,48,0.00,,,0.00,VWS V13.01,2013-01-16 18:00:00,
2013-01-16 13:05:00,31.9,14.4,29.89,NNW,341,0.0,0.0,48,0.00,,,0.00,VWS V13.01,2013-01-16 18:05:00,
2013-01-16 13:10:00,31.9,14.4,29.89,NNW,339,0.0,0.0,48,0.00,,,0.00,VWS V13.01,2013-01-16 18:10:00,
2013-01-16 13:15:00,31.9,14.4,29.89,NNW,339,0.0,0.0,48,0.00,,,0.00,VWS V13.01,2013-01-16 18:15:00,
2013-01-16 13:20:00,32.0,14.6,29.88,NNW,339,0.0,0.0,48,0.00,,,0.00,VWS V13.01,2013-01-16 18:20:00,
2013-01-16 13:25:00,32.0,14.6,29.88,NNW,339,0.0,0.0,48,0.00,,,0.00,VWS V13.01,2013-01-16 18:25:00,
2013-01-16 13:30:00,32.1,14.2,29.88,NNW,339,0.0,0.0,47,0.00,,,0.00,VWS V13.01,2013-01-16 18:30:00,
2013-01-16 13:35:00,32.1,14.2,29.87,NNW,339,0.0,0.0,47,0.00,,,0.00,VWS V13.01,2013-01-16 18:35:00,
2013-01-16 13:40:00,32.0,14.1,29.86,NNW,339,0.0,0.0,47,0.00,,,0.00,VWS V13.01,2013-01-16 18:40:00,
2013-01-16 13:45:00,32.0,14.6,29.84,NNW,339,0.0,0.0,48,0.00,,,0.00,VWS V13.01,2013-01-16 18:45:00,
2013-01-16 13:51:00,32.0,14.1,29.85,NNW,339,0.0,1.0,47,0.00,,,0.00,VWS V13.01,2013-01-16 18:51:00,
2013-01-16 13:56:00,32.1,14.2,29.85,NNW,339,0.0,1.0,47,0.00,,,0.00,VWS V13.01,2013-01-16 18:56:00,
2013-01-16 14:01:00,32.0,14.1,29.84,NNW,339,0.0,2.0,47,0.00,,,0.00,VWS V13.01,2013-01-16 19:01:00,
2013-01-16 14:06:00,32.0,14.6,29.82,NNW,339,2.0,2.0,48,0.00,,,0.00,VWS V13.01,2013-01-16 19:06:00,
2013-01-16 14:11:00,31.9,14.4,29.82,NNW,339,1.0,2.0,48,0.00,,,0.00,VWS V13.01,2013-01-16 19:11:00,
2013-01-16 14:16:00,31.9,14.4,29.81,NNW,339,0.0,2.0,48,0.00,,,0.00,VWS V13.01,2013-01-16 19:16:00,
2013-01-16 14:21:00,31.9,14.4,29.81,NNW,339,0.0,2.0,48,0.00,,,0.00,VWS V13.01,2013-01-16 19:21:00,
2013-01-16 14:26:00,31.9,14.4,29.81,NNW,339,0.0,2.0,48,0.00,,,0.00,VWS V13.01,2013-01-16 19:26:00,
2013-01-16 14:31:00,31.9,14.4,29.81,NNW,339,0.0,2.0,48,0.00,,,0.00,VWS V13.01,2013-01-16 19:31:00,
2013-01-16 14:36:00,31.9,14.4,29.81,NNW,339,0.0,0.0,48,0.00,,,0.00,VWS V13.01,2013-01-16 19:36:00,
2013-01-16 14:41:00,31.9,14.0,29.82,NNW,339,0.0,0.0,47,0.00,,,0.00,VWS V13.01,2013-01-16 19:41:00,
2013-01-16 14:46:00,32.0,14.1,29.83,NNW,339,0.0,1.0,47,0.00,,,0.00,VWS V13.01,2013-01-16 19:46:00,
2013-01-16 14:51:00,32.0,14.1,29.81,NNW,339,0.0,1.0,47,0.00,,,0.00,VWS V13.01,2013-01-16 19:51:00,
2013-01-16 14:56:00,31.9,14.0,29.81,NNW,339,0.0,1.0,47,0.00,,,0.00,VWS V13.01,2013-01-16 19:56:00,
2013-01-16 15:01:00,31.9,14.0,29.82,NNW,339,0.0,1.0,47,0.00,,,0.00,VWS V13.01,2013-01-16 20:01:00,
2013-01-16 15:06:00,31.9,14.0,29.82,NNW,339,0.0,0.0,47,0.00,,,0.00,VWS V13.01,2013-01-16 20:06:00,
2013-01-16 15:11:00,32.0,14.1,29.82,NNW,339,0.0,1.0,47,0.00,,,0.00,VWS V13.01,2013-01-16 20:11:00,
2013-01-16 15:16:00,31.9,14.0,29.83,NNW,335,0.0,3.0,47,0.00,,,0.00,VWS V13.01,2013-01-16 20:16:00,
2013-01-16 15:21:00,31.9,14.0,29.84,NNW,335,0.0,3.0,47,0.00,,,0.00,VWS V13.01,2013-01-16 20:21:00,
2013-01-16 15:26:00,31.9,14.0,29.84,NNW,334,0.0,3.0,47,0.00,,,0.00,VWS V13.01,2013-01-16 20:26:00,
2013-01-16 15:31:00,31.9,14.0,29.83,NW,323,0.0,0.0,47,0.00,,,0.00,VWS V13.01,2013-01-16 20:31:00,
2013-01-16 15:36:00,31.9,14.0,29.82,NW,323,0.0,0.0,47,0.00,,,0.00,VWS V13.01,2013-01-16 20:36:00,
2013-01-16 15:41:00,31.9,14.0,29.82,WNW,297,0.0,1.0,47,0.00,,,0.00,VWS V13.01,2013-01-16 20:41:00,
2013-01-16 15:46:00,31.9,14.0,29.83,WNW,297,0.0,1.0,47,0.00,,,0.00,VWS V13.01,2013-01-16 20:46:00,
2013-01-16 15:51:00,31.9,14.0,29.83,WNW,297,0.0,2.0,47,0.00,,,0.00,VWS V13.01,2013-01-16 20:51:00,
2013-01-16 15:56:00,31.9,14.0,29.82,NW,306,0.0,2.0,47,0.00,,,0.00,VWS V13.01,2013-01-16 20:56:00,
2013-01-16 16:01:00,31.9,14.0,29.82,NNW,331,0.0,1.0,47,0.00,,,0.00,VWS V13.01,2013-01-16 21:01:00,
2013-01-16 16:06:00,31.8,13.9,29.82,NNW,331,0.0,2.0,47,0.00,,,0.00,VWS V13.01,2013-01-16 21:06:00,
2013-01-16 16:11:00,31.8,13.9,29.82,NNW,331,0.0,2.0,47,0.00,,,0.00,VWS V13.01,2013-01-16 21:11:00,
2013-01-16 16:17:00,31.8,13.9,29.83,NNW,331,0.0,2.0,47,0.00,,,0.00,VWS V13.01,2013-01-16 21:17:00,
2013-01-16 16:22:00,31.8,13.9,29.83,NW,307,0.0,3.0,47,0.00,,,0.00,VWS V13.01,2013-01-16 21:22:00,
2013-01-16 16:27:00,31.7,13.8,29.83,NW,307,0.0,3.0,47,0.00,,,0.00,VWS V13.01,2013-01-16 21:27:00,
2013-01-16 16:30:00,34.6,32.0,30.23,SW,225,1.0,9.0,90,0.00,,CLR,0.00,VWS V13.01,2013-01-16 21:30:00,
2013-01-16 16:32:00,31.7,13.8,29.82,NW,307,0.0,0.0,47,0.00,,,0.00,VWS V13.01,2013-01-16 21:32:00,
2013-01-16 16:37:00,31.7,13.8,29.83,NW,307,0.0,1.0,47,0.00,,,0.00,VWS V13.01,2013-01-16 21:37:00,
2013-01-16 16:42:00,31.7,13.8,29.83,NW,307,0.0,1.0,47,0.00,,,0.00,VWS V13.01,2013-01-16 21:42:00,
2013-01-16 16:47:00,31.7,13.8,29.83,NW,307,0.0,2.0,47,0.00,,,0.00,VWS V13.01,2013-01-16 21:47:00,
2013-01-16 16:52:00,31.7,13.8,29.82,NW,307,0.0,2.0,47,0.00,,,0.00,VWS V13.01,2013-01-16 21:52:00,
2013-01-16 16:57:00,31.7,13.8,29.82,NW,307,0.0,2.0,47,0.00,,,0.00,VWS V13.01,2013-01-16 21:57:00,
2013-01-16 17:02:00,31.7,13.8,29.83,NW,307,0.0,0.0,47,0.00,,,0.00,VWS V13.01,2013-01-16 22:02:00,
2013-01-16 17:07:00,31.7,13.8,29.83,NW,307,0.0,0.0,47,0.00,,,0.00,VWS V13.01,2013-01-16 22:07:00,
2013-01-16 17:12:00,31.7,13.8,29.83,NW,307,0.0,0.0,47,0.00,,,0.00,VWS V13.01,2013-01-16 22:12:00,
2013-01-16 17:17:00,31.6,13.7,29.83,NW,307,0.0,0.0,47,0.00,,,0.00,VWS V13.01,2013-01-16 22:17:00,
2013-01-16 17:23:00,31.6,13.7,29.83,NW,307,0.0,0.0,47,0.00,,,0.00,VWS V13.01,2013-01-16 22:23:00,
2013-01-16 17:28:00,31.6,13.7,29.82,NW,308,0.0,0.0,47,0.00,,,0.00,VWS V13.01,2013-01-16 22:28:00,
2013-01-16 17:33:00,31.6,13.7,29.82,NW,308,0.0,0.0,47,0.00,,,0.00,VWS V13.01,2013-01-16 22:33:00,
2013-01-16 17:38:00,31.6,13.7,29.82,NW,308,0.0,0.0,47,0.00,,,0.00,VWS V13.01,2013-01-16 22:38:00,
2013-01-16 17:43:00,31.6,13.7,29.82,NW,308,0.0,0.0,47,0.01,,,0.01,VWS V13.01,2013-01-16 22:43:00,
2013-01-16 17:48:00,31.6,13.7,29.82,NW,308,0.0,0.0,47,0.01,,,0.01,VWS V13.01,2013-01-16 22:48:00,
2013-01-16 17:53:00,31.6,13.7,29.83,NW,308,0.0,0.0,47,0.01,,,0.01,VWS V13.01,2013-01-16 22:53:00,
2013-01-16 17:58:00,31.5,13.6,29.82,NW,308,0.0,0.0,47,0.01,,,0.01,VWS V13.01,2013-01-16 22:58:00,
2013-01-16 18:03:00,31.5,13.6,29.82,NW,308,0.0,0.0,47,0.01,,,0.01,VWS V13.01,2013-01-16 23:03:00,
2013-01-16 18:08:00,31.5,13.6,29.82,NW,308,0.0,0.0,47,0.01,,,0.01,VWS V13.01,2013-01-16 23:08:00,
2013-01-16 18:13:00,31.6,13.7,29.83,NW,308,0.0,0.0,47,0.01,,,0.01,VWS V13.01,2013-01-16 23:13:00,
2013-01-16 18:18:00,31.6,13.7,29.83,NW,308,0.0,0.0,47,0.01,,,0.01,VWS V13.01,2013-01-16 23:18:00,
2013-01-16 18:23:00,31.6,13.7,29.83,NW,308,0.0,0.0,47,0.01,,,0.01,VWS V13.01,2013-01-16 23:23:00,
2013-01-16 18:28:00,31.6,13.7,29.83,NW,308,0.0,0.0,47,0.01,,,0.01,VWS V13.01,2013-01-16 23:28:00,
2013-01-16 18:34:00,31.6,13.7,29.83,NW,308,0.0,0.0,47,0.01,,,0.01,VWS V13.01,2013-01-16 23:34:00,
2013-01-16 18:39:00,31.5,13.6,29.83,NW,308,0.0,0.0,47,0.01,,,0.01,VWS V13.01,2013-01-16 23:39:00,
2013-01-16 18:44:00,31.5,13.6,29.82,NW,308,0.0,0.0,47,0.01,,,0.01,VWS V13.01,2013-01-16 23:44:00,
2013-01-16 18:49:00,31.5,13.6,29.82,NW,308,0.0,0.0,47,0.01,,,0.01,VWS V13.01,2013-01-16 23:49:00,
2013-01-16 18:54:00,31.5,13.6,29.81,NW,308,0.0,0.0,47,0.01,,,0.01,VWS V13.01,2013-01-16 23:54:00,
2013-01-16 18:59:00,31.5,13.6,29.81,NW,308,0.0,0.0,47,0.01,,,0.01,VWS V13.01,2013-01-16 23:59:00,
2013-01-16 19:04:00,31.5,13.6,29.81,NW,308,0.0,0.0,47,0.00,,,0.01,VWS V13.01,2013-01-17 00:04:00,
2013-01-16 19:09:00,31.4,13.5,29.80,NW,308,0.0,0.0,47,0.00,,,0.01,VWS V13.01,2013-01-17 00:09:00,
2013-01-16 19:14:00,31.4,13.5,29.81,NW,308,0.0,0.0,47,0.00,,,0.01,VWS V13.01,2013-01-17 00:14:00,
2013-01-16 19:19:00,31.4,13.5,29.80,NW,308,0.0,0.0,47,0.01,,OVC016,0.02,VWS V13.01,2013-01-17 00:19:00,
2013-01-16 19:24:00,31.4,13.5,29.80,NW,308,0.0,0.0,47,0.01,,OVC016,0.02,VWS V13.01,2013-01-17 00:24:00,
2013-01-16 19:29:00,31.4,13.5,29.81,NW,308,0.0,0.0,47,0.01,,OVC016,0.02,VWS V13.01,2013-01-17 00:29:00,
2013-01-16 19:34:00,31.4,13.5,29.81,NW,308,0.0,1.0,47,0.01,,OVC016,0.02,VWS V13.01,2013-01-17 00:34:00,
2013-01-16 19:39:00,31.4,13.5,29.80,NW,308,0.0,1.0,47,0.01,,OVC016,0.02,VWS V13.01,2013-01-17 00:39:00,
2013-01-16 19:44:00,31.4,13.5,29.80,NW,308,0.0,1.0,47,0.01,,OVC016,0.02,VWS V13.01,2013-01-17 00:44:00,
2013-01-16 19:49:00,31.4,13.5,29.82,NW,308,0.0,1.0,47,0.01,,OVC016,0.02,VWS V13.01,2013-01-17 00:49:00,
2013-01-16 19:54:00,31.4,13.5,29.82,NW,308,0.0,1.0,47,0.01,,OVC016,0.02,VWS V13.01,2013-01-17 00:54:00,
2013-01-16 19:59:00,31.4,13.5,29.81,NW,308,0.0,1.0,47,0.01,,OVC016,0.02,VWS V13.01,2013-01-17 00:59:00,
2013-01-16 20:04:00,31.4,13.5,29.81,NW,308,0.0,0.0,47,0.01,,OVC016,0.02,VWS V13.01,2013-01-17 01:04:00,
2013-01-16 20:09:00,31.4,13.5,29.81,NW,308,0.0,0.0,47,0.01,,OVC016,0.02,VWS V13.01,2013-01-17 01:09:00,
2013-01-16 20:15:00,31.4,13.5,29.83,NW,308,0.0,1.0,47,0.01,,OVC016,0.02,VWS V13.01,2013-01-17 01:15:00,
2013-01-16 20:20:00,31.4,13.5,29.83,NW,308,0.0,1.0,47,0.01,,OVC016,0.02,VWS V13.01,2013-01-17 01:20:00,
2013-01-16 20:25:00,31.4,13.5,29.82,NW,308,0.0,1.0,47,0.01,,OVC016,0.02,VWS V13.01,2013-01-17 01:25:00,
2013-01-16 20:30:00,31.4,13.5,29.82,NW,308,0.0,1.0,47,0.01,,OVC016,0.02,VWS V13.01,2013-01-17 01:30:00,
2013-01-16 20:35:00,31.4,13.5,29.82,NW,308,0.0,0.0,47,0.00,,OVC016,0.02,VWS V13.01,2013-01-17 01:35:00,
2013-01-16 20:40:00,31.4,13.5,29.81,NW,308,0.0,0.0,47,0.00,,OVC016,0.02,VWS V13.01,2013-01-17 01:40:00,
2013-01-16 20:45:00,31.4,13.5,29.81,NW,308,0.0,0.0,47,0.00,,,0.02,VWS V13.01,2013-01-17 01:45:00,
2013-01-16 20:50:00,31.3,13.4,29.81,NW,308,0.0,0.0,47,0.01,,,0.03,VWS V13.01,2013-01-17 01:50:00,
2013-01-16 20:55:00,31.3,13.4,29.81,NW,308,0.0,0.0,47,0.01,,,0.03,VWS V13.01,2013-01-17 01:55:00,
2013-01-16 21:00:00,31.3,13.4,29.81,NW,308,0.0,0.0,47,0.01,,,0.03,VWS V13.01,2013-01-17 02:00:00,
2013-01-16 21:05:00,31.3,13.4,29.81,NW,308,0.0,0.0,47,0.01,,,0.03,VWS V13.01,2013-01-17 02:05:00,
2013-01-16 21:10:00,31.3,13.4,29.82,NW,308,0.0,0.0,47,0.01,,,0.03,VWS V13.01,2013-01-17 02:10:00,
2013-01-16 21:15:00,31.3,13.4,29.82,NW,308,0.0,0.0,47,0.01,,,0.03,VWS V13.01,2013-01-17 02:15:00,
2013-01-16 21:20:00,31.3,13.4,29.82,NW,308,0.0,0.0,47,0.01,,,0.03,VWS V13.01,2013-01-17 02:20:00,
2013-01-16 21:25:00,31.3,13.4,29.82,NW,308,0.0,0.0,47,0.01,,,0.03,VWS V13.01,2013-01-17 02:25:00,
2013-01-16 21:30:00,31.4,13.5,29.82,NW,308,0.0,0.0,47,0.01,,,0.03,VWS V13.01,2013-01-17 02:30:00,
2013-01-16 21:35:00,31.4,13.5,29.81,NW,308,0.0,0.0,47,0.01,,,0.03,VWS V13.01,2013-01-17 02:35:00,
2013-01-16 21:40:00,31.4,13.5,29.81,NW,308,0.0,0.0,47,0.01,,,0.03,VWS V13.01,2013-01-17 02:40:00,
2013-01-16 21:45:00,31.3,13.4,29.81,NW,308,0.0,0.0,47,0.01,,,0.03,VWS V13.01,2013-01-17 02:45:00,
2013-01-16 21:50:00,31.3,13.4,29.81,NW,308,0.0,0.0,47,0.01,,,0.03,VWS V13.01,2013-01-17 02:50:00,
2013-01-16 21:55:00,31.3,13.4,29.81,NW,308,0.0,0.0,47,0.01,,,0.03,VWS V13.01,2013-01-17 02:55:00,
2013-01-16 22:00:00,31.3,13.4,29.81,NW,308,0.0,0.0,47,0.01,,,0.03,VWS V13.01,2013-01-17 03:00:00,
2013-01-16 22:05:00,31.3,13.4,29.81,NW,308,0.0,0.0,47,0.00,,,0.03,VWS V13.01,2013-01-17 03:05:00,
2013-01-16 22:10:00,31.3,13.4,29.81,NW,308,0.0,0.0,47,0.00,,,0.03,VWS V13.01,2013-01-17 03:10:00,
2013-01-16 22:15:00,31.3,13.4,29.81,NW,308,0.0,0.0,47,0.00,,,0.03,VWS V13.01,2013-01-17 03:15:00,
2013-01-16 22:20:00,31.2,13.3,29.81,NW,308,0.0,0.0,47,0.00,,,0.03,VWS V13.01,2013-01-17 03:20:00,
2013-01-16 22:26:00,31.2,13.3,29.81,NW,308,0.0,0.0,47,0.00,,,0.03,VWS V13.01,2013-01-17 03:26:00,
2013-01-16 22:31:00,31.1,13.2,29.81,NW,308,0.0,0.0,47,0.00,,,0.03,VWS V13.01,2013-01-17 03:31:00,
2013-01-16 22:36:00,31.0,13.1,29.81,NW,308,0.0,0.0,47,0.00,,,0.03,VWS V13.01,2013-01-17 03:36:00,
2013-01-16 22:41:00,30.9,13.1,29.80,NW,308,0.0,0.0,47,0.00,,,0.03,VWS V13.01,2013-01-17 03:41:00,
2013-01-16 22:46:00,30.9,13.1,29.80,NW,308,0.0,0.0,47,0.00,,,0.03,VWS V13.01,2013-01-17 03:46:00,
2013-01-16 22:51:00,30.8,13.0,29.80,NW,308,0.0,0.0,47,0.00,,,0.03,VWS V13.01,2013-01-17 03:51:00,
2013-01-16 22:56:00,30.7,12.9,29.80,NW,308,0.0,0.0,47,0.00,,,0.03,VWS V13.01,2013-01-17 03:56:00,
2013-01-16 23:01:00,30.7,12.9,29.80,NW,308,0.0,0.0,47,0.00,,,0.03,VWS V13.01,2013-01-17 04:01:00,
2013-01-16 23:06:00,30.7,12.9,29.81,NW,308,1.0,1.0,47,0.00,,,0.03,VWS V13.01,2013-01-17 04:06:00,
2013-01-16 23:11:00,30.6,12.8,29.80,NW,308,0.0,1.0,47,0.00,,,0.03,VWS V13.01,2013-01-17 04:11:00,
2013-01-16 23:16:00,30.6,12.8,29.80,NW,308,0.0,1.0,47,0.00,,,0.03,VWS V13.01,2013-01-17 04:16:00,
2013-01-16 23:21:00,30.6,12.8,29.80,NW,308,0.0,1.0,47,0.00,,,0.03,VWS V13.01,2013-01-17 04:21:00,
2013-01-16 23:26:00,30.5,12.7,29.80,SW,235,0.0,3.0,47,0.00,,,0.03,VWS V13.01,2013-01-17 04:26:00,
2013-01-16 23:31:00,30.5,12.7,29.80,WSW,244,2.0,2.0,47,0.00,,,0.03,VWS V13.01,2013-01-17 04:31:00,
2013-01-16 23:37:00,30.6,12.8,29.80,WSW,244,2.0,3.0,47,0.00,,,0.03,VWS V13.01,2013-01-17 04:37:00,
2013-01-16 23:42:00,30.7,12.9,29.80,West,269,0.0,3.0,47,0.00,,,0.03,VWS V13.01,2013-01-17 04:42:00,
2013-01-16 23:47:00,30.7,12.9,29.80,WSW,252,0.0,4.0,47,0.00,,,0.03,VWS V13.01,2013-01-17 04:47:00,
2013-01-16 23:52:00,30.7,12.9,29.80,WSW,254,1.0,4.0,47,0.00,,,0.03,VWS V13.01,2013-01-17 04:52:00,
2013-01-16 23:57:00,30.8,13.0,29.80,SW,216,0.0,4.0,47,0.00,,,0.03,VWS V13.01,2013-01-17 04:57:00,